Regional Weather Roundup
Issued by NWS

Home | Current Version | Previous Version | Graphics & Text | Print | Product List | Glossary On
Versions: 1 2 3 4 5 6 7 8 9 10 11 12 13 14 15 16 17 18 19 20 21 22 23 24 25 26 27 28 29 30 31 32 33 34 35 36 37 38 39 40 41 42 43 44 45 46 47 48 49 50
000
ASUS43 KBIS 020901
RWRND

NORTH DAKOTA REGIONAL WEATHER ROUNDUP
NATIONAL WEATHER SERVICE BISMARCK ND
400 AM CDT THU APR 02 2015

NOTE: "FAIR" INDICATES FEW OR NO CLOUDS BELOW 12,000 FEET WITH NO
SIGNIFICANT WEATHER AND/OR OBSTRUCTIONS TO VISIBILITY.


NDZ001>003-009>011-017-021000-
NORTHWEST NORTH DAKOTA

CITY           SKY/WX    TMP DP  RH WIND       PRES   REMARKS
WILLISTON      MOCLDY    39  25  57 W18G26    29.64S
MINOT          CLEAR     39  23  52 SW16      29.57S
MINOT AFB      CLEAR     37  27  67 W22       29.56R
$$

NDZ018>021-031>035-040>046-021000-
SOUTHWEST NORTH DAKOTA

CITY           SKY/WX    TMP DP  RH WIND       PRES   REMARKS
BISMARCK       CLEAR     36  21  54 SW7       29.71R
DICKINSON      CLEAR     34  16  47 W17       29.70F
GARRISON         N/A     35  26  69 W14       29.62F
HETTINGER ARPT CLEAR     33  17  51 W15       29.78R
$$

NDZ004>008-012>016-024-026-027-054-021000-
NORTHEAST NORTH DAKOTA

CITY           SKY/WX    TMP DP  RH WIND       PRES   REMARKS
GRAND FORKS    CLEAR     33  26  75 SW7       29.60F
GRND FRKS AFB  CLEAR     36  26  66 W12       29.60F
DEVILS LAKE    CLEAR     34  27  75 SW9       29.58F
$$

NDZ022-023-025-028>030-036>039-047>053-021000-
SOUTHEAST NORTH DAKOTA

CITY           SKY/WX    TMP DP  RH WIND       PRES   REMARKS
FARGO          PTCLDY    40  28  62 SW13      29.67S
JAMESTOWN      PTCLDY    37  25  61 W12       29.67S
$$




USA.gov is the U.S. government's official web portal to all federal, state and local government web resources and services.